Date String (YYYY-MM-DD hh:mm:ss) UTC,Instrument flags,Ambient pressure (hPa),Sample flow (lpm),Bypass flow (lpm),Sample temperature (°C),Ambient temperature (°C),ASC tube jacket temperature (°C),LED temperature (°C),Box temperature (°C),Sample RH (%),Span deviation,Mass concentration (μg/m³),Mass concentration (μg/m³),Mass concentration (μg/m³)
DateTimeUTC,F1_M11,P_M11,Q1_M11,Q2_M11,T1_M11,T2_M11,T3_M11,T4_M11,T5_M11,U1_M11,ZSPAN_M11,X0_M11,X2_M11,X1_M11
2022-08-28 17:00:00,,0822.6,5.00,0.00,29.4,28.0,00.0,38.1,31.3,15.2,0000.0,0009.73,0004.07,0003.29
2022-08-28 17:01:00,,0822.6,4.99,0.00,29.4,28.2,00.0,38.1,31.3,15.2,0000.0,0009.91,0004.08,0003.29
2022-08-28 17:02:00,,0822.6,4.99,0.00,29.5,27.9,00.0,38.1,31.3,14.5,0000.0,0009.83,0004.05,0003.28
2022-08-28 17:03:00,,0822.6,5.00,0.00,29.4,26.9,00.0,38.1,31.2,14.3,0000.0,0009.92,0004.01,0003.27
2022-08-28 17:04:00,,0822.6,5.01,0.00,29.4,26.7,00.0,38.0,31.2,14.8,0000.0,0010.74,0004.00,0003.26
2022-08-28 17:05:00,,0822.6,5.00,0.00,29.4,27.0,00.0,38.0,31.1,14.9,0000.0,0011.08,0003.97,0003.26
2022-08-28 17:06:00,,0822.5,5.01,0.00,29.3,27.2,00.0,38.0,31.1,14.7,0000.0,0011.01,0003.91,0003.26
2022-08-28 17:07:00,,0822.6,5.01,0.00,29.3,27.5,00.0,38.0,31.1,14.1,0000.0,0010.91,0003.88,0003.25
2022-08-28 17:08:00,,0822.6,4.99,0.00,29.3,27.7,00.0,38.0,31.2,14.6,0000.0,0011.71,0003.89,0003.25
2022-08-28 17:09:00,,0822.6,5.00,0.00,29.4,28.0,00.0,38.0,31.2,14.6,0000.0,0011.43,0003.90,0003.24
2022-08-28 17:10:00,,0822.6,5.02,0.00,29.4,28.2,00.0,38.0,31.3,14.5,0000.0,0011.21,0003.90,0003.23
2022-08-28 17:11:00,,0822.6,5.00,0.00,29.4,28.2,00.0,38.1,31.4,14.1,0000.0,0010.59,0003.86,0003.23
2022-08-28 17:12:00,,0822.6,4.99,0.00,29.5,27.4,00.0,38.1,31.4,14.6,0000.0,0010.44,0003.85,0003.23
2022-08-28 17:13:00,,0822.6,5.01,0.00,29.4,26.6,00.0,38.0,31.3,14.7,0000.0,0010.62,0003.90,0003.23
2022-08-28 17:14:00,,0822.6,5.00,0.00,29.4,26.8,00.0,38.0,31.3,14.7,0000.0,0010.52,0003.93,0003.23
2022-08-28 17:15:00,,0822.5,5.00,0.00,29.4,27.1,00.0,38.0,31.1,14.6,0000.0,0009.83,0003.94,0003.24
2022-08-28 17:16:00,,0822.5,5.01,0.00,29.3,27.3,00.0,38.0,31.1,14.4,0000.0,0009.55,0003.97,0003.23
2022-08-28 17:17:00,,0822.5,4.98,0.00,29.3,27.6,00.0,38.0,31.2,14.6,0000.0,0009.51,0003.98,0003.23
2022-08-28 17:18:00,,0822.5,5.01,0.00,29.4,27.8,00.0,38.0,31.2,15.2,0000.0,0009.89,0004.02,0003.23
2022-08-28 17:19:00,,0822.5,5.00,0.00,29.4,28.1,00.0,38.0,31.3,15.2,0000.0,0009.22,0004.03,0003.24
2022-08-28 17:20:00,,0822.5,5.00,0.00,29.4,28.2,00.0,38.0,31.3,15.4,0000.0,0009.32,0004.03,0003.24
2022-08-28 17:21:00,,0822.6,5.00,0.00,29.4,27.4,00.0,38.0,31.3,15.4,0000.0,0009.49,0004.04,0003.25
2022-08-28 17:22:00,,0822.6,5.01,0.00,29.4,26.6,00.0,38.0,31.2,15.2,0000.0,0009.79,0004.04,0003.26
2022-08-28 17:23:00,,0822.5,5.00,0.00,29.4,26.7,00.0,38.0,31.2,15.7,0000.0,0009.80,0004.07,0003.26
2022-08-28 17:24:00,,0822.5,5.00,0.00,29.3,27.0,00.0,38.0,31.2,15.1,0000.0,0009.65,0004.05,0003.27
2022-08-28 17:25:00,,0822.6,4.99,0.00,29.3,27.3,00.0,38.0,31.1,15.3,0000.0,0010.08,0004.02,0003.26
2022-08-28 17:26:00,,0822.5,5.00,0.00,29.3,27.5,00.0,38.0,31.1,15.3,0000.0,0011.19,0004.02,0003.26
2022-08-28 17:27:00,,0822.6,5.00,0.00,29.3,27.8,00.0,38.0,31.2,15.0,0000.0,0011.32,0004.02,0003.27
2022-08-28 17:28:00,,0822.6,5.00,0.00,29.4,28.0,00.0,38.0,31.2,14.8,0000.0,0011.36,0004.03,0003.26
2022-08-28 17:29:00,,0822.6,5.00,0.00,29.4,28.1,00.0,38.0,31.3,14.9,0000.0,0011.09,0003.99,0003.25
2022-08-28 17:30:00,,0822.6,4.99,0.00,29.4,27.5,00.0,38.0,31.3,15.2,0000.0,0011.73,0003.97,0003.25
2022-08-28 17:31:00,,0822.5,5.00,0.00,29.4,26.6,00.0,38.0,31.2,15.5,0000.0,0011.69,0003.92,0003.25
2022-08-28 17:32:00,,0822.5,5.01,0.00,29.4,26.7,00.0,38.0,31.2,14.7,0000.0,0011.84,0003.94,0003.24
2022-08-28 17:33:00,,0822.6,5.00,0.00,29.3,27.0,00.0,37.9,31.1,14.8,0000.0,0011.55,0003.95,0003.23
2022-08-28 17:34:00,,0822.6,4.99,0.00,29.3,27.3,00.0,37.9,31.1,14.9,0000.0,0011.90,0003.92,0003.23
2022-08-28 17:35:00,,0822.7,4.99,0.00,29.3,27.5,00.0,37.9,31.1,15.0,0000.0,0012.16,0003.92,0003.22
2022-08-28 17:36:00,,0822.6,5.00,0.00,29.3,27.8,00.0,38.0,31.2,15.5,0000.0,0012.04,0003.93,0003.23
2022-08-28 17:37:00,,0822.6,5.01,0.00,29.3,28.0,00.0,38.0,31.2,15.2,0000.0,0011.30,0003.93,0003.22
2022-08-28 17:38:00,,0822.6,4.99,0.00,29.4,27.9,00.0,38.0,31.3,15.1,0000.0,0010.90,0003.90,0003.22
2022-08-28 17:39:00,,0822.6,5.00,0.00,29.4,27.0,00.0,38.0,31.2,15.2,0000.0,0010.97,0003.92,0003.23
2022-08-28 17:40:00,,0822.5,5.00,0.00,29.3,26.6,00.0,38.0,31.1,15.1,0000.0,0011.04,0003.94,0003.23
2022-08-28 17:41:00,,0822.5,5.01,0.00,29.3,26.8,00.0,37.9,31.1,14.3,0000.0,0010.14,0003.95,0003.24
2022-08-28 17:42:00,,0822.6,5.00,0.00,29.3,27.1,00.0,37.9,31.0,14.2,0000.0,0009.76,0004.00,0003.24
2022-08-28 17:43:00,,0822.6,4.99,0.00,29.3,27.4,00.0,37.9,31.0,14.1,0000.0,0009.16,0003.94,0003.24
2022-08-28 17:44:00,,0822.6,5.01,0.00,29.3,27.6,00.0,37.9,31.1,14.4,0000.0,0008.88,0003.92,0003.23
2022-08-28 17:45:00,,0822.6,4.99,0.00,29.3,27.9,00.0,37.9,31.2,14.7,0000.0,0008.53,0003.93,0003.22
2022-08-28 17:46:00,,0822.6,5.00,0.00,29.3,28.1,00.0,37.9,31.2,15.0,0000.0,0008.36,0003.95,0003.22
2022-08-28 17:47:00,,0822.6,4.99,0.00,29.4,28.0,00.0,38.0,31.3,14.6,0000.0,0008.50,0003.99,0003.21
2022-08-28 17:48:00,,0822.6,5.00,0.00,29.4,27.0,00.0,38.0,31.2,14.6,0000.0,0008.44,0003.96,0003.21
2022-08-28 17:49:00,,0822.6,5.01,0.00,29.3,26.5,00.0,37.9,31.1,14.5,0000.0,0008.94,0003.96,0003.20
2022-08-28 17:50:00,,0822.6,5.00,0.00,29.3,26.8,00.0,37.9,31.1,14.0,0000.0,0008.81,0003.93,0003.20
2022-08-28 17:51:00,,0822.6,5.00,0.00,29.3,27.1,00.0,37.9,31.0,13.9,0000.0,0009.53,0003.90,0003.19
2022-08-28 17:52:00,,0822.6,5.00,0.00,29.2,27.4,00.0,37.9,31.0,13.6,0000.0,0009.80,0003.88,0003.17
2022-08-28 17:53:00,,0822.6,5.00,0.00,29.3,27.6,00.0,37.9,31.1,13.4,0000.0,0009.85,0003.84,0003.16
2022-08-28 17:54:00,,0822.6,5.00,0.00,29.3,27.9,00.0,37.9,31.1,13.9,0000.0,0010.32,0003.87,0003.15
2022-08-28 17:55:00,,0822.6,5.00,0.00,29.3,28.0,00.0,37.9,31.2,14.2,0000.0,0010.51,0003.86,0003.14
2022-08-28 17:56:00,,0822.6,4.99,0.00,29.4,27.6,00.0,37.9,31.2,14.2,0000.0,0010.53,0003.85,0003.13
2022-08-28 17:57:00,,0822.6,5.01,0.00,29.3,26.5,00.0,37.9,31.1,14.2,0000.0,0010.45,0003.84,0003.12
2022-08-28 17:58:00,,0822.7,4.99,0.00,29.3,26.6,00.0,37.9,31.1,14.3,0000.0,0010.13,0003.80,0003.12
2022-08-28 17:59:00,,0822.6,5.00,0.00,29.3,26.9,00.0,37.9,31.1,14.1,0000.0,0009.92,0003.80,0003.12
